Weather History for Hutchinson, KS

Change the Weather History Date:

Thursday, February 7, 2013

  Actual Average Record
Temperature  
Mean Temperature 46 °F -  
Max Temperature 55 °F 42 °F 70 °F (2009)
Min Temperature 36 °F 20 °F 0 °F (2004)
Degree Days  
Heating Degree Days 19    
Moisture  
Dew Point 41 °F    
Average Humidity 77    
Maximum Humidity 100    
Minimum Humidity 38    
Precipitation  
Precipitation 0.06 in - - ()
Sea Level Pressure  
Sea Level Pressure 29.96 in    
Wind  
Wind Speed 11 mph (NNE)    
Max Wind Speed 20 mph    
Max Gust Speed 31 mph    
Visibility 7 miles    
Events Rain    
Averages and records for this station are not official NWS values.
T = Trace of Precipitation, MM = Missing Value Source: NWS Daily Summary

Daily Weather History Graph

Daily Weather History Graph

Search for Another Location

Airport:

Trip Planner

Search our weather history database for the weather conditions in past years. The results will help you decide how hot, cold, wet, or windy it might be!

Date:

Astronomy

Feb. 07, 2013 Rise Set
Actual Time 7:30 AM CST 6:01 PM CST
Civil Twilight 7:02 AM CST 6:29 PM CST
Nautical Twilight 6:31 AM CST 7:00 PM CST
Astronomical Twilight 6:00 AM CST 7:31 PM CST
Moon 5:09 AM CST (2/7) 3:28 PM CST (2/7)
Length of Visible Light 11h 26m
Length of Day
10h 31m
Waning Crescent, 9% of the Moon is Illuminated
Feb 7
Waning Crescent
Feb 10
New
Feb 17
First Quarter
Feb 25
Full
Mar 4
Last Quarter

Hourly Weather History & Observations

Time (CST) Temp. Windchill Dew Point Humidity Pressure Visibility Wind Dir Wind Speed Gust Speed Precip Events Conditions
12:18 AM 53.6 °F - 53.6 °F 100% 29.86 in 1.2 mi SSE 6.9 mph - N/A   Overcast
12:43 AM 53.6 °F - 51.8 °F 94% 29.85 in 2.0 mi South 11.5 mph - N/A   Overcast
12:52 AM 54.0 °F - 52.0 °F 93% 29.82 in 2.0 mi South 9.2 mph - N/A   Overcast
1:03 AM 53.6 °F - 51.8 °F 94% 29.85 in 1.5 mi South 8.1 mph - 0.00 in Rain Light Rain
1:52 AM 53.1 °F - 51.1 °F 93% 29.81 in 1.5 mi South 11.5 mph - 0.00 in Rain Light Rain
2:25 AM 51.8 °F - 50.0 °F 94% 29.84 in 2.0 mi SSE 8.1 mph - 0.00 in   Overcast
2:52 AM 52.0 °F - 50.0 °F 93% 29.81 in 2.0 mi SSE 9.2 mph - 0.00 in   Overcast
3:07 AM 51.8 °F - 50.0 °F 94% 29.84 in 1.5 mi SSE 10.4 mph - N/A   Overcast
3:40 AM 51.8 °F - 50.0 °F 94% 29.83 in 2.0 mi SSE 10.4 mph - 0.00 in   Overcast
3:52 AM 51.1 °F - 50.0 °F 96% 29.80 in 2.5 mi SSE 9.2 mph - 0.00 in   Overcast
4:04 AM 51.8 °F - 50.0 °F 94% 29.83 in 3.0 mi SSE 9.2 mph - N/A   Overcast
4:52 AM 51.1 °F - 50.0 °F 96% 29.81 in 4.0 mi South 4.6 mph - N/A   Overcast
5:17 AM 51.8 °F - 50.0 °F 94% 29.87 in 4.0 mi NNW 6.9 mph - 0.03 in Rain Heavy Rain
5:29 AM 51.8 °F - 48.2 °F 88% 29.87 in 9.0 mi North 11.5 mph - 0.03 in Rain Light Rain
5:52 AM 52.0 °F - 48.9 °F 89% 29.87 in 7.0 mi North 13.8 mph - 0.03 in Rain Light Rain
5:59 AM 51.8 °F - 48.2 °F 88% 29.89 in 6.0 mi North 12.7 mph - 0.01 in Rain Rain
6:10 AM 51.8 °F - 48.2 °F 88% 29.89 in 6.0 mi North 12.7 mph - 0.01 in Rain Light Rain
6:49 AM 50.0 °F - 46.4 °F 87% 29.90 in 7.0 mi NNE 13.8 mph 23.0 mph 0.03 in Rain Light Rain
6:52 AM 50.0 °F - 46.9 °F 89% 29.88 in 8.0 mi NNE 13.8 mph 23.0 mph 0.03 in Rain Light Rain
7:03 AM 50.0 °F - 46.4 °F 87% 29.90 in 7.0 mi NNE 13.8 mph - N/A   Overcast
7:52 AM 48.0 °F - 45.0 °F 89% 29.92 in 5.0 mi North 15.0 mph 23.0 mph N/A   Overcast
8:52 AM 43.0 °F 35.4 °F 39.0 °F 86% 29.98 in 5.0 mi North 16.1 mph - N/A   Overcast
9:27 AM 42.8 °F 35.1 °F 35.6 °F 76% 30.02 in 10.0 mi North 16.1 mph 21.9 mph N/A   Overcast
9:52 AM 44.1 °F 37.1 °F 36.0 °F 73% 30.00 in 10.0 mi North 15.0 mph 25.3 mph N/A   Mostly Cloudy
10:08 AM 44.6 °F 37.4 °F 37.4 °F 76% 30.02 in 10.0 mi North 16.1 mph - N/A   Scattered Clouds
10:52 AM 46.9 °F - 35.1 °F 63% 30.02 in 10.0 mi North 15.0 mph 27.6 mph N/A   Partly Cloudy
11:52 AM 50.0 °F - 35.1 °F 57% 30.03 in 10.0 mi North 19.6 mph 25.3 mph N/A   Clear
12:52 PM 48.9 °F - 34.0 °F 56% 30.04 in 10.0 mi North 19.6 mph 31.1 mph N/A   Clear
1:52 PM 53.1 °F - 34.0 °F 48% 30.03 in 10.0 mi North 17.3 mph 24.2 mph N/A   Clear
2:52 PM 53.1 °F - 32.0 °F 45% 30.03 in 10.0 mi North 19.6 mph 27.6 mph N/A   Clear
3:52 PM 55.0 °F - 30.0 °F 38% 30.04 in 10.0 mi North 19.6 mph 26.5 mph N/A   Clear
4:52 PM 53.1 °F - 28.9 °F 40% 30.06 in 10.0 mi North 16.1 mph 24.2 mph N/A   Clear
5:52 PM 50.0 °F - 30.0 °F 46% 30.09 in 10.0 mi North 10.4 mph - N/A   Clear
6:52 PM 45.0 °F 41.2 °F 30.0 °F 56% 30.12 in 10.0 mi North 6.9 mph - N/A   Clear
7:52 PM 45.0 °F 40.1 °F 28.9 °F 53% 30.15 in 10.0 mi NNE 9.2 mph - N/A   Clear
8:52 PM 42.1 °F 37.1 °F 28.9 °F 60% 30.18 in 10.0 mi NNE 8.1 mph - N/A   Clear
9:52 PM 39.0 °F 34.8 °F 28.0 °F 65% 30.20 in 10.0 mi NNE 5.8 mph - N/A   Clear
10:52 PM 37.0 °F 31.6 °F 27.0 °F 67% 30.20 in 10.0 mi NNE 6.9 mph - N/A   Clear
11:52 PM 36.0 °F 29.6 °F 28.0 °F 73% 30.22 in 10.0 mi NNE 8.1 mph - N/A   Clear